Regional Weather Roundup
Issued by NWS

Home | Current Version | Previous Version | Text Only | Print | Product List | Glossary On
Versions: 1 2 3 4 5 6 7 8 9 10 11 12 13 14 15 16 17 18 19 20 21 22 23 24 25 26 27 28 29 30 31 32 33 34 35 36 37 38 39 40 41 42 43 44 45 46 47 48 49 50
000
ASUS42 KKEY 252010
RWRKEY

FLORIDA REGIONAL WEATHER ROUNDUP FOR THE FLORIDA KEYS
NATIONAL WEATHER SERVICE KEY WEST FLORIDA
400 PM EDT MON JUL 25 2016

...SOUTH FLORIDA AND THE KEYS...

CITY           SKY/WX    TMP DP  RH WIND       PRES   REMARKS
FORT MYERS     RAIN      79  74  84 S10G22    30.03R
SW REGIONAL AP LGT RAIN  78  73  84 W15       30.04R
NAPLES         LGT RAIN  76  75  97 NE8       30.05R
MIAMI          PTSUNNY   89  75  63 SE14      30.03F HX  99
WEST KENDALL   MOSUNNY   88  75  65 E14       30.03F HX  97
HOMESTEAD      MOSUNNY   88  75  66 E8        30.03F HX  98
MARATHON       SUNNY     88  78  72 SE8       30.02F HX 101
BOCA CHICA NAS PTSUNNY   89  76  65 SE13      30.01F HX 100
KEY WEST INTL  MOSUNNY   89  79  72 SE10      30.02F HX 104

...INTERNATIONAL WEATHER...

CITY           SKY/WX    TMP DP  RH WIND       PRES   REMARKS
NASSAU BAHAMAS MOSUNNY   95  61  31 E13       30.06  HX  95
CANCUN MEXICO  PTSUNNY   86  77  74 E10       29.96F HX  97
COZUMEL MEXICO PTSUNNY   86  75  70 E12       29.95F HX  95

ADJACENT COASTAL WATERS...

STATION/POSITION TIME  SKY/WX   TEMP    WIND        PRES    WAVE
                                AIR SEA DIR/SP/G            HT/PER
                 (UTC)          (F)     (DEG/KT/KT) (MB)    (FT/S)
PULASKI SHOAL LI 2000            85     120/ 11/ 12 1016.3F
SAND KEY         1950            85     130/ 10/ 12 1016.8F
LONG KEY         1900            85 87  130/ 10/ 11 1017.3F
FOWEY ROCKS      2000            85 84  130/ 12/ 12 1017.6F

$$



USA.gov is the U.S. government's official web portal to all federal, state and local government web resources and services.